Regional Weather Roundup
Issued by NWS

Home | Current Version | Previous Version | Graphics & Text | Print | Product List | Glossary On
Versions: 1 2 3 4 5 6 7 8 9 10 11 12 13 14 15 16 17 18 19 20 21 22 23 24 25 26 27 28 29 30 31 32 33 34 35 36 37 38 39 40 41 42 43 44 45 46 47 48 49 50
322
ASUS43 KIND 192259
RWRIN

WEATHER ROUNDUP FOR INDIANA
NATIONAL WEATHER SERVICE INDIANAPOLIS IN
600 PM EST MON FEB 19 2018

NOTE: "FAIR" INDICATES FEW OR NO CLOUDS BELOW 12,000 FEET WITH NO
SIGNIFICANT WEATHER AND/OR OBSTRUCTIONS TO VISIBILITY.

* - STATION DOES NOT REPORT WEATHER SUCH AS PRECIPITATION OR FOG.

+ - STATION NOT QUALITY CONTROLLED BY THE NATIONAL WEATHER SERVICE.
    USE DATA WITH CAUTION...ESPECIALLY DEWPOINT AND RELATIVE
    HUMIDITY OBSERVATIONS.

INZ001>003-010>013-019-020-200000-
NORTHWEST INDIANA

CITY           SKY/WX    TMP DP  RH WIND       PRES   REMARKS
GARY /AIRPORT/ RAIN      57  55  94 SW13G25   29.84S
MONTICELLO +   RAIN      58  57  96 SW20G26   29.91S
VALPARAISO     HVY RAIN  57  56  96 SW15      29.89R FOG

$$

LMZ046-743>745-200000-
SOUTHERN LAKE MICHIGAN

STATION/POSITION TIME  TEMP    WIND        PRES    WAVE
                       AIR SEA DIR/SP/G            HT
                 (UTC) (F)     (DEG/KT/KT) (MB)    (FT)
BURNS HARBOR     2240   55     200/ 20/ 25 1011.2R
MICHIGAN CITY    2230   58     180/ 19/ 24   N/A

$$

INZ004-005-014>016-021>024-200000-
NORTH CENTRAL INDIANA

CITY           SKY/WX    TMP DP  RH WIND       PRES   REMARKS
ELKHART        HVY RAIN N/A N/A N/A SW10      29.90R
GOSHEN         RAIN      57  55  93 SW14      29.91R FOG
PERU/GRISSOM   LGT RAIN  59  59 100 S16G24    29.94R
SOUTH BEND     HVY RAIN  55  54  96 SW14      29.90R FOG
WARSAW +       LGT RAIN  57  55  94 SW7G23    29.92R

$$

INZ006>009-017-018-025>027-200000-
NORTHEAST INDIANA

CITY           SKY/WX    TMP DP  RH WIND       PRES   REMARKS
AUBURN +       MOCLDY    59  55  88 SW14G28   29.95R
FORT WAYNE     LGT RAIN  60  56  86 SW21G32   29.96S
KENDALLVILLE + RAIN      58  56  94 SW17G28   29.93R

$$

INZ028-029-035-036-043>045-051>053-200000-
WEST CENTRAL INDIANA

CITY           SKY/WX    TMP DP  RH WIND       PRES   REMARKS
GREENCASTLE +  CLOUDY    61  55  82 CALM      30.00R
LAFAYETTE      RAIN      60  58  92 S14G22    29.93F FOG
TERRE HAUTE    CLOUDY    61  58  90 S5        29.98R

$$

INZ030>032-037>040-046>048-054>057-064-065-200000-
CENTRAL INDIANA

CITY           SKY/WX    TMP DP  RH WIND       PRES   REMARKS
COLUMBUS       MOCLDY    70  48  46 SW18G26   30.01R
INDIANAPOLIS   CLOUDY    61  57  87 W6        30.00R
-EAGLE CREEK   CLOUDY    60  56  86 CALM      29.99R
KOKOMO +       LGT RAIN  60  57  89 S23G29    29.96F
MT COMFORT *+  CLOUDY    59  59 100 CALM      30.00S
SHELBYVILLE    CLOUDY    67  57  70 S8        29.99S

$$

INZ033-034-041-042-049-050-058-059-200000-
EAST CENTRAL INDIANA

CITY           SKY/WX    TMP DP  RH WIND       PRES   REMARKS
MUNCIE         CLOUDY    64  56  75 SW8       30.00R
RICHMOND +     MOCLDY    64  55  72 SW13      30.03R

$$

INZ060-061-067>069-081>083-085>088-200000-
SOUTHWEST INDIANA

CITY           SKY/WX    TMP DP  RH WIND       PRES   REMARKS
EVANSVILLE     FAIR      71  55  56 S13G24    30.01R
HUNTINGBURG +  FAIR      72  55  55 S14G25    30.03R

$$

INZ062-063-066-070>080-084-089>092-200000-
SOUTH CENTRAL AND SOUTHEAST INDIANA

CITY           SKY/WX    TMP DP  RH WIND       PRES   REMARKS
BLOOMINGTON    FAIR      69  56  62 S14       29.98F
FRENCH LICK *+ MOCLDY    70  46  43 SW8       30.04R

$$





USA.gov is the U.S. government's official web portal to all federal, state and local government web resources and services.